When you browse on this site, cookies collect data to enhance your experience and personalize the content and advertising you see.
Visit our Privacy Policy to learn more. By continuing to use the site, you agree to this use of cookies and data.
  • Em Portugal
  • Lista de países
  • Para 7 dias
  • Temperatura da água
  • Mapa do tempo
  • Widgets de tempo
  • user-avatar
    Iniciar Sessão

    Previsão horária em Njiva

    Hoje, 15 Outubro, Terça-feira

    Tempo Temperatura Precipitação Vento Pressão Humidade
    00:00 +28°C° 0 mm 2 m/s 668 mmHg 44%
    01:00 +27°C° 0 mm 2 m/s 668 mmHg 45%
    02:00 +27°C° 0 mm 2 m/s 668 mmHg 45%
    03:00 +27°C° 0 mm 2 m/s 668 mmHg 45%
    04:00 +27°C° 0 mm 2 m/s 667 mmHg 45%
    05:00 +27°C° 0 mm 2 m/s 668 mmHg 44%
    06:00 +28°C° 0 mm 2 m/s 668 mmHg 42%
    07:00 +28°C° 0 mm 2 m/s 669 mmHg 43%
    08:00 +30°C° 0 mm 3 m/s 669 mmHg 36%
    09:00 +33°C° 0 mm 3 m/s 670 mmHg 30%
    10:00 +35°C° 0 mm 4 m/s 670 mmHg 24%
    11:00 +36°C° 0 mm 4 m/s 669 mmHg 21%
    12:00 +38°C° 0 mm 4 m/s 669 mmHg 18%
    13:00 +40°C° 0 mm 4 m/s 668 mmHg 15%
    14:00 +39°C° 0 mm 3 m/s 667 mmHg 14%
    15:00 +39°C° 0 mm 3 m/s 667 mmHg 13%
    16:00 +39°C° 0 mm 3 m/s 666 mmHg 12%
    17:00 +37°C° 0 mm 2 m/s 666 mmHg 13%
    18:00 +35°C° 0 mm 2 m/s 666 mmHg 15%
    19:00 +32°C° 0 mm 2 m/s 666 mmHg 17%
    20:00 +32°C° 0 mm 2 m/s 666 mmHg 18%
    21:00 +32°C° 0 mm 1 m/s 667 mmHg 18%
    22:00 +31°C° 0 mm 1 m/s 667 mmHg 19%
    23:00 +31°C° 0 mm 2 m/s 667 mmHg 21%

    Amanhã, 16 Outubro, Quarta-feira

    Tempo Temperatura Precipitação Vento Pressão Humidade
    00:00 +30°C° 0 mm 2 m/s 667 mmHg 23%
    01:00 +30°C° 0 mm 3 m/s 667 mmHg 25%
    02:00 +28°C° 0 mm 3 m/s 667 mmHg 29%
    03:00 +27°C° 0 mm 3 m/s 666 mmHg 33%
    04:00 +26°C° 0 mm 2 m/s 666 mmHg 37%
    05:00 +26°C° 0 mm 2 m/s 667 mmHg 36%
    06:00 +27°C° 0 mm 2 m/s 667 mmHg 36%
    07:00 +27°C° 0 mm 3 m/s 668 mmHg 36%
    08:00 +30°C° 0 mm 2 m/s 668 mmHg 30%
    09:00 +32°C° 0 mm 1 m/s 669 mmHg 25%
    10:00 +35°C° 0 mm 1 m/s 669 mmHg 20%
    11:00 +37°C° 0 mm 2 m/s 669 mmHg 17%
    12:00 +38°C° 0 mm 3 m/s 668 mmHg 15%
    13:00 +40°C° 0 mm 4 m/s 668 mmHg 12%
    14:00 +40°C° 0 mm 4 m/s 667 mmHg 12%
    15:00 +40°C° 0 mm 4 m/s 667 mmHg 12%
    16:00 +40°C° 0 mm 4 m/s 666 mmHg 12%
    17:00 +37°C° 0 mm 3 m/s 666 mmHg 12%
    18:00 +36°C° 0 mm 3 m/s 667 mmHg 13%
    19:00 +34°C° 0 mm 3 m/s 667 mmHg 14%
    20:00 +33°C° 0 mm 3 m/s 667 mmHg 14%
    21:00 +31°C° 0 mm 3 m/s 667 mmHg 14%
    22:00 +30°C° 0 mm 3 m/s 667 mmHg 15%
    23:00 +29°C° 0 mm 3 m/s 667 mmHg 16%

    Depois de amanhã, 17 Outubro, Quinta-feira

    Tempo Temperatura Precipitação Vento Pressão Humidade
    00:00 +28°C° 0 mm 2 m/s 667 mmHg 17%
    01:00 +28°C° 0 mm 2 m/s 667 mmHg 18%
    02:00 +27°C° 0 mm 2 m/s 666 mmHg 19%
    03:00 +26°C° 0 mm 1 m/s 666 mmHg 21%
    04:00 +25°C° 0 mm 1 m/s 666 mmHg 23%
    05:00 +26°C° 0 mm 1 m/s 667 mmHg 22%
    06:00 +27°C° 0 mm 2 m/s 668 mmHg 20%
    07:00 +28°C° 0 mm 2 m/s 668 mmHg 19%
    08:00 +30°C° 0 mm 4 m/s 669 mmHg 17%
    09:00 +34°C° 0 mm 5 m/s 669 mmHg 15%
    10:00 +38°C° 0 mm 6 m/s 669 mmHg 12%
    11:00 +39°C° 0 mm 6 m/s 669 mmHg 11%
    12:00 +40°C° 0 mm 5 m/s 668 mmHg 11%
    13:00 +41°C° 0 mm 4 m/s 667 mmHg 10%
    14:00 +40°C° 0 mm 4 m/s 667 mmHg 9%
    15:00 +39°C° 0 mm 3 m/s 666 mmHg 9%
    16:00 +39°C° 0 mm 3 m/s 666 mmHg 9%
    17:00 +37°C° 0 mm 3 m/s 666 mmHg 10%
    18:00 +35°C° 0 mm 2 m/s 666 mmHg 12%
    19:00 +32°C° 0 mm 2 m/s 665 mmHg 13%
    20:00 +31°C° 0 mm 2 m/s 666 mmHg 14%
    21:00 +30°C° 0 mm 2 m/s 666 mmHg 15%
    22:00 +29°C° 0 mm 2 m/s 666 mmHg 15%
    23:00 +29°C° 0 mm 1 m/s 666 mmHg 16%

    18 Outubro, Sexta-feira

    Tempo Temperatura Precipitação Vento Pressão Humidade
    00:00 +28°C° 0 mm 1 m/s 666 mmHg 17%
    01:00 +27°C° 0 mm 1 m/s 666 mmHg 18%
    02:00 +26°C° 0 mm 2 m/s 666 mmHg 25%
    03:00 +25°C° 0 mm 2 m/s 666 mmHg 32%
    04:00 +24°C° 0 mm 2 m/s 665 mmHg 39%
    05:00 +25°C° 0 mm 2 m/s 666 mmHg 41%
    06:00 +25°C° 0 mm 2 m/s 666 mmHg 42%
    07:00 +26°C° 0 mm 1 m/s 667 mmHg 44%
    08:00 +29°C° 0 mm 2 m/s 667 mmHg 34%
    09:00 +33°C° 0 mm 3 m/s 668 mmHg 25%
    10:00 +36°C° 0 mm 3 m/s 668 mmHg 16%
    11:00 +37°C° 0 mm 3 m/s 668 mmHg 13%
    12:00 +38°C° 0 mm 3 m/s 667 mmHg 11%
    13:00 +39°C° 0 mm 3 m/s 667 mmHg 9%
    14:00 +39°C° 0 mm 3 m/s 666 mmHg 9%
    15:00 +39°C° 0 mm 3 m/s 666 mmHg 8%
    16:00 +39°C° 0 mm 3 m/s 665 mmHg 8%
    17:00 +37°C° 0 mm 3 m/s 665 mmHg 9%
    18:00 +35°C° 0 mm 2 m/s 665 mmHg 10%
    19:00 +32°C° 0 mm 1 m/s 665 mmHg 11%
    20:00 +31°C° 0 mm 1 m/s 665 mmHg 12%
    21:00 +31°C° 0 mm 1 m/s 665 mmHg 13%
    22:00 +30°C° 0 mm 2 m/s 666 mmHg 14%
    23:00 +29°C° 0 mm 2 m/s 666 mmHg 18%

    19 Outubro, Sábado

    Tempo Temperatura Precipitação Vento Pressão Humidade
    00:00 +27°C° 0 mm 2 m/s 665 mmHg 22%
    01:00 +26°C° 0 mm 2 m/s 665 mmHg 26%
    02:00 +26°C° 0 mm 2 m/s 665 mmHg 28%
    03:00 +25°C° 0 mm 2 m/s 665 mmHg 29%
    04:00 +24°C° 0 mm 1 m/s 665 mmHg 31%
    05:00 +25°C° 0 mm 1 m/s 665 mmHg 28%
    06:00 +26°C° 0 mm 1 m/s 666 mmHg 25%
    07:00 +27°C° 0 mm 1 m/s 667 mmHg 22%
    08:00 +30°C° 0 mm 2 m/s 667 mmHg 17%
    09:00 +34°C° 0 mm 2 m/s 668 mmHg 13%
    10:00 +37°C° 0 mm 3 m/s 668 mmHg 9%
    11:00 +38°C° 0 mm 3 m/s 668 mmHg 8%
    12:00 +40°C° 0 mm 4 m/s 667 mmHg 7%
    13:00 +41°C° 0 mm 4 m/s 667 mmHg 6%
    14:00 +41°C° 0 mm 4 m/s 666 mmHg 6%
    15:00 +40°C° 0 mm 3 m/s 666 mmHg 6%
    16:00 +40°C° 0 mm 3 m/s 665 mmHg 5%
    17:00 +38°C° 0 mm 3 m/s 665 mmHg 6%
    18:00 +35°C° 0 mm 2 m/s 665 mmHg 7%
    19:00 +32°C° 0 mm 2 m/s 664 mmHg 8%
    20:00 +31°C° 0 mm 1 m/s 665 mmHg 9%
    21:00 +30°C° 0 mm 1 m/s 665 mmHg 10%
    22:00 +29°C° 0 mm 1 m/s 665 mmHg 10%
    23:00 +28°C° 0 mm 1 m/s 665 mmHg 11%

    20 Outubro, Domingo

    Tempo Temperatura Precipitação Vento Pressão Humidade
    00:00 +28°C° 0 mm 1 m/s 665 mmHg 11%
    01:00 +27°C° 0 mm 1 m/s 665 mmHg 12%
    02:00 +26°C° 0 mm 1 m/s 665 mmHg 16%
    03:00 +25°C° 0 mm 1 m/s 665 mmHg 21%
    04:00 +24°C° 0 mm 1 m/s 665 mmHg 25%
    05:00 +24°C° 0 mm 1 m/s 665 mmHg 26%
    06:00 +25°C° 0 mm 1 m/s 666 mmHg 27%
    07:00 +26°C° 0 mm 1 m/s 666 mmHg 28%
    08:00 +29°C° 0 mm 2 m/s 667 mmHg 21%
    09:00 +34°C° 0 mm 2 m/s 667 mmHg 15%
    10:00 +37°C° 0 mm 2 m/s 668 mmHg 9%
    11:00 +38°C° 0 mm 3 m/s 668 mmHg 8%
    12:00 +40°C° 0 mm 3 m/s 667 mmHg 6%
    13:00 +42°C° 0 mm 4 m/s 667 mmHg 5%
    14:00 +42°C° 0 mm 4 m/s 666 mmHg 5%
    15:00 +42°C° 0 mm 4 m/s 666 mmHg 5%
    16:00 +42°C° 0 mm 4 m/s 665 mmHg 5%
    17:00 +38°C° 0 mm 3 m/s 665 mmHg 6%
    18:00 +36°C° 0 mm 3 m/s 665 mmHg 7%
    19:00 +32°C° 0 mm 2 m/s 665 mmHg 8%
    20:00 +32°C° 0 mm 2 m/s 665 mmHg 8%
    21:00 +31°C° 0 mm 1 m/s 665 mmHg 9%
    22:00 +30°C° 0 mm 1 m/s 665 mmHg 9%
    23:00 +29°C° 0 mm 1 m/s 665 mmHg 10%
    Mostrar mais